Location: Cossonay
(46.5833°N, 6.4167°E)
Time: 21:27:11
(UTC+00:00)

STARLINK-1257 - Pass Details

Date: 07 October 2020
Orbit: 549 x 550 km, 53.0° (Epoch: 22 October)

Event Time Altitude Azimuth Distance (km) Brightness Sun altitude
Exits shadow 02:51:36 31° 86° (E) 979 5.3 -29.3°
Drops below altitude 10° 02:53:56 11° 68° (ENE) 1,790 7.2 -28.9°
Sets 02:56:18 0° 62° (ENE) 2,722 8.4 -28.5°
